• In Czech Republic
  • List of Countries
  • For 7 days
  • Water Temperature
  • Satellite Maps
  • Weather Map
  • Weather Widgets
  • user-avatar
    Login

    Hourly Weather Asadabad

    Today, 19 October, Friday

    Time Temperature Precipitation Wind Pressure Humidity
    00:00 +14°C° 0 mm 2 mps 658 mmHg 43%
    01:00 +14°C° 0 mm 2 mps 658 mmHg 43%
    02:00 +13°C° 0 mm 2 mps 658 mmHg 43%
    03:00 +13°C° 0 mm 2 mps 658 mmHg 44%
    04:00 +13°C° 0 mm 2 mps 658 mmHg 44%
    05:00 +13°C° 0 mm 2 mps 657 mmHg 45%
    06:00 +14°C° 0.1 mm 2 mps 658 mmHg 42%
    07:00 +15°C° 0.1 mm 2 mps 659 mmHg 40%
    08:00 +16°C° 0.1 mm 2 mps 659 mmHg 38%
    09:00 +17°C° 0 mm 2 mps 660 mmHg 35%
    10:00 +18°C° 0 mm 2 mps 660 mmHg 32%
    11:00 +20°C° 0 mm 1 mps 660 mmHg 29%
    12:00 +21°C° 0.1 mm 1 mps 660 mmHg 29%
    13:00 +20°C° 0.1 mm 2 mps 660 mmHg 29%
    14:00 +21°C° 0.1 mm 2 mps 660 mmHg 28%
    15:00 +20°C° 0.1 mm 2 mps 660 mmHg 30%
    16:00 +21°C° 0.1 mm 1 mps 660 mmHg 32%
    17:00 +21°C° 0.1 mm 1 mps 660 mmHg 33%
    18:00 +19°C° 0 mm 1 mps 660 mmHg 36%
    19:00 +17°C° 0 mm 2 mps 660 mmHg 39%
    20:00 +15°C° 0 mm 2 mps 660 mmHg 42%
    21:00 +15°C° 0 mm 2 mps 660 mmHg 41%
    22:00 +14°C° 0 mm 2 mps 660 mmHg 40%
    23:00 +13°C° 0 mm 3 mps 660 mmHg 39%

    Tomorrow, 20 October, Saturday

    Time Temperature Precipitation Wind Pressure Humidity
    00:00 +13°C° 0 mm 3 mps 660 mmHg 38%
    01:00 +12°C° 0 mm 3 mps 660 mmHg 38%
    02:00 +12°C° 0 mm 3 mps 659 mmHg 37%
    03:00 +12°C° 0 mm 3 mps 659 mmHg 36%
    04:00 +11°C° 0 mm 3 mps 659 mmHg 36%
    05:00 +11°C° 0 mm 3 mps 659 mmHg 36%
    06:00 +12°C° 0 mm 3 mps 660 mmHg 34%
    07:00 +14°C° 0 mm 2 mps 660 mmHg 32%
    08:00 +16°C° 0 mm 2 mps 661 mmHg 30%
    09:00 +17°C° 0 mm 2 mps 661 mmHg 28%
    10:00 +18°C° 0 mm 2 mps 662 mmHg 27%
    11:00 +21°C° 0 mm 1 mps 662 mmHg 25%
    12:00 +21°C° 0 mm 1 mps 662 mmHg 25%
    13:00 +21°C° 0 mm 2 mps 662 mmHg 25%
    14:00 +21°C° 0 mm 2 mps 661 mmHg 26%
    15:00 +21°C° 0 mm 2 mps 661 mmHg 28%
    16:00 +21°C° 0 mm 1 mps 661 mmHg 30%
    17:00 +21°C° 0 mm 1 mps 661 mmHg 32%
    18:00 +19°C° 0 mm 1 mps 661 mmHg 34%
    19:00 +18°C° 0 mm 1 mps 661 mmHg 37%
    20:00 +15°C° 0 mm 1 mps 661 mmHg 39%
    21:00 +15°C° 0 mm 2 mps 661 mmHg 39%
    22:00 +14°C° 0 mm 2 mps 661 mmHg 39%
    23:00 +14°C° 0 mm 2 mps 661 mmHg 39%

    Day after tomorrow, 21 October, Sunday

    Time Temperature Precipitation Wind Pressure Humidity
    00:00 +14°C° 0 mm 2 mps 661 mmHg 39%
    01:00 +13°C° 0 mm 2 mps 660 mmHg 39%
    02:00 +13°C° 0 mm 2 mps 660 mmHg 39%
    03:00 +13°C° 0 mm 2 mps 660 mmHg 39%
    04:00 +12°C° 0 mm 2 mps 660 mmHg 38%
    05:00 +11°C° 0 mm 3 mps 660 mmHg 38%
    06:00 +13°C° 0 mm 2 mps 660 mmHg 36%
    07:00 +15°C° 0 mm 2 mps 661 mmHg 33%
    08:00 +16°C° 0 mm 2 mps 661 mmHg 31%
    09:00 +17°C° 0 mm 2 mps 662 mmHg 29%
    10:00 +18°C° 0 mm 2 mps 662 mmHg 27%
    11:00 +21°C° 0 mm 1 mps 662 mmHg 24%
    12:00 +20°C° 0 mm 2 mps 662 mmHg 24%
    13:00 +21°C° 0 mm 2 mps 662 mmHg 24%
    14:00 +21°C° 0 mm 2 mps 661 mmHg 24%
    15:00 +21°C° 0 mm 2 mps 661 mmHg 26%
    16:00 +21°C° 0 mm 1 mps 661 mmHg 29%
    17:00 +21°C° 0 mm 1 mps 661 mmHg 31%
    18:00 +19°C° 0 mm 1 mps 661 mmHg 33%
    19:00 +18°C° 0 mm 1 mps 661 mmHg 35%
    20:00 +15°C° 0 mm 1 mps 661 mmHg 38%
    21:00 +15°C° 0 mm 2 mps 661 mmHg 38%
    22:00 +14°C° 0 mm 2 mps 661 mmHg 38%
    23:00 +14°C° 0 mm 2 mps 661 mmHg 38%

    22 October, Monday

    Time Temperature Precipitation Wind Pressure Humidity
    00:00 +14°C° 0 mm 2 mps 661 mmHg 37%
    01:00 +13°C° 0 mm 2 mps 660 mmHg 37%
    02:00 +13°C° 0 mm 2 mps 660 mmHg 37%
    03:00 +13°C° 0 mm 2 mps 660 mmHg 36%
    04:00 +11°C° 0 mm 3 mps 659 mmHg 35%
    05:00 +11°C° 0 mm 3 mps 659 mmHg 35%
    06:00 +12°C° 0 mm 3 mps 660 mmHg 33%
    07:00 +14°C° 0 mm 2 mps 660 mmHg 31%
    08:00 +15°C° 0 mm 2 mps 660 mmHg 28%
    09:00 +17°C° 0 mm 2 mps 661 mmHg 25%
    10:00 +18°C° 0 mm 2 mps 661 mmHg 22%
    11:00 +21°C° 0 mm 1 mps 661 mmHg 20%
    12:00 +20°C° 0 mm 2 mps 661 mmHg 20%
    13:00 +21°C° 0 mm 2 mps 660 mmHg 20%
    14:00 +21°C° 0 mm 2 mps 660 mmHg 20%
    15:00 +21°C° 0 mm 2 mps 660 mmHg 22%
    16:00 +20°C° 0 mm 2 mps 659 mmHg 25%
    17:00 +20°C° 0 mm 1 mps 659 mmHg 27%
    18:00 +19°C° 0 mm 1 mps 659 mmHg 29%
    19:00 +16°C° 0 mm 1 mps 659 mmHg 30%
    20:00 +15°C° 0 mm 2 mps 659 mmHg 32%
    21:00 +14°C° 0 mm 2 mps 659 mmHg 31%
    22:00 +14°C° 0 mm 2 mps 659 mmHg 31%
    23:00 +14°C° 0 mm 2 mps 659 mmHg 30%

    23 October, Tuesday

    Time Temperature Precipitation Wind Pressure Humidity
    00:00 +13°C° 0 mm 2 mps 659 mmHg 30%
    01:00 +12°C° 0 mm 3 mps 658 mmHg 30%
    02:00 +11°C° 0 mm 3 mps 658 mmHg 30%
    03:00 +11°C° 0 mm 3 mps 658 mmHg 29%
    04:00 +11°C° 0 mm 3 mps 658 mmHg 29%
    05:00 +11°C° 0 mm 3 mps 658 mmHg 29%
    06:00 +13°C° 0 mm 2 mps 658 mmHg 27%
    07:00 +14°C° 0 mm 2 mps 659 mmHg 26%
    08:00 +15°C° 0 mm 2 mps 659 mmHg 24%
    09:00 +17°C° 0 mm 2 mps 659 mmHg 22%
    10:00 +18°C° 0 mm 2 mps 660 mmHg 19%
    11:00 +21°C° 0 mm 1 mps 660 mmHg 17%
    12:00 +20°C° 0 mm 2 mps 660 mmHg 17%
    13:00 +21°C° 0 mm 2 mps 659 mmHg 17%
    14:00 +21°C° 0 mm 2 mps 659 mmHg 18%
    15:00 +21°C° 0 mm 2 mps 659 mmHg 20%
    16:00 +21°C° 0 mm 1 mps 658 mmHg 23%
    17:00 +20°C° 0 mm 1 mps 658 mmHg 26%
    18:00 +18°C° 0 mm 1 mps 658 mmHg 28%
    19:00 +16°C° 0 mm 1 mps 658 mmHg 31%
    20:00 +14°C° 0 mm 1 mps 658 mmHg 33%
    21:00 +14°C° 0 mm 1 mps 658 mmHg 31%
    22:00 +14°C° 0 mm 1 mps 658 mmHg 30%
    23:00 +14°C° 0 mm 2 mps 658 mmHg 28%

    24 October, Wednesday

    Time Temperature Precipitation Wind Pressure Humidity
    00:00 +14°C° 0 mm 2 mps 658 mmHg 28%
    01:00 +14°C° 0 mm 2 mps 657 mmHg 28%
    02:00 +13°C° 0 mm 2 mps 657 mmHg 28%
    03:00 +13°C° 0 mm 2 mps 657 mmHg 28%
    04:00 +13°C° 0 mm 2 mps 656 mmHg 27%
    05:00 +12°C° 0 mm 2 mps 656 mmHg 27%
    06:00 +13°C° 0 mm 2 mps 657 mmHg 26%
    07:00 +15°C° 0 mm 2 mps 658 mmHg 25%
    08:00 +16°C° 0 mm 1 mps 658 mmHg 24%
    09:00 +18°C° 0 mm 1 mps 659 mmHg 23%
    10:00 +19°C° 0 mm 1 mps 659 mmHg 22%
    11:00 +20°C° 0 mm 1 mps 659 mmHg 21%
    12:00 +20°C° 0 mm 1 mps 659 mmHg 22%
    13:00 +20°C° 0 mm 1 mps 659 mmHg 23%
    14:00 +20°C° 0 mm 2 mps 658 mmHg 24%
    15:00 +20°C° 0 mm 1 mps 658 mmHg 27%
    16:00 +20°C° 0 mm 1 mps 658 mmHg 29%
    17:00 +19°C° 0 mm 1 mps 659 mmHg 32%
    18:00 +18°C° 0 mm 1 mps 659 mmHg 34%
    19:00 +16°C° 0 mm 1 mps 659 mmHg 35%
    20:00 +15°C° 0 mm 1 mps 659 mmHg 36%
    21:00 +15°C° 0 mm 1 mps 659 mmHg 37%
    22:00 +14°C° 0 mm 1 mps 659 mmHg 38%
    23:00 +14°C° 0 mm 1 mps 659 mmHg 38%
    Show more